When you browse on this site, cookies collect data to enhance your experience and personalize the content and advertising you see.
Visit our Privacy Policy to learn more. By continuing to use the site, you agree to this use of cookies and data.
  • In Hungary
  • List of Countries
  • For 7 days
  • Water Temperature
  • Satellite Maps
  • Weather Map
  • News
  • Weather Widgets
  • user-avatar
    Login

    Hourly Weather San Martin Xaltocan

    Today, 22 February, Friday

    Time Temperature Precipitation Wind Pressure Humidity
    00:00 +12°C° 0 mm 1 mps 566 mmHg 48%
    01:00 +12°C° 0 mm 1 mps 566 mmHg 49%
    02:00 +11°C° 0 mm 1 mps 566 mmHg 50%
    03:00 +11°C° 0 mm 1 mps 566 mmHg 50%
    04:00 +11°C° 0 mm 1 mps 566 mmHg 50%
    05:00 +9°C° 0 mm 0 mps 565 mmHg 50%
    06:00 +13°C° 0 mm 1 mps 567 mmHg 43%
    07:00 +15°C° 0 mm 1 mps 568 mmHg 37%
    08:00 +18°C° 0 mm 1 mps 570 mmHg 31%
    09:00 +20°C° 0 mm 1 mps 571 mmHg 26%
    10:00 +22°C° 0 mm 1 mps 572 mmHg 21%
    11:00 +24°C° 0 mm 1 mps 572 mmHg 17%
    12:00 +25°C° 0 mm 1 mps 572 mmHg 16%
    13:00 +25°C° 0 mm 2 mps 572 mmHg 15%
    14:00 +26°C° 0 mm 2 mps 571 mmHg 15%
    15:00 +25°C° 0 mm 3 mps 571 mmHg 18%
    16:00 +22°C° 0 mm 3 mps 571 mmHg 21%
    17:00 +21°C° 0 mm 3 mps 570 mmHg 25%
    18:00 +20°C° 0 mm 2 mps 570 mmHg 30%
    19:00 +18°C° 0 mm 2 mps 569 mmHg 36%
    20:00 +16°C° 0 mm 1 mps 569 mmHg 41%
    21:00 +16°C° 0 mm 1 mps 569 mmHg 42%
    22:00 +15°C° 0 mm 1 mps 569 mmHg 44%
    23:00 +15°C° 0 mm 1 mps 569 mmHg 45%

    Tomorrow, 23 February, Saturday

    Time Temperature Precipitation Wind Pressure Humidity
    00:00 +14°C° 0 mm 1 mps 568 mmHg 47%
    01:00 +13°C° 0 mm 1 mps 568 mmHg 50%
    02:00 +13°C° 0 mm 1 mps 567 mmHg 53%
    03:00 +12°C° 0 mm 1 mps 567 mmHg 55%
    04:00 +11°C° 0 mm 0 mps 567 mmHg 57%
    05:00 +11°C° 0 mm 0 mps 567 mmHg 59%
    06:00 +12°C° 0 mm 0 mps 568 mmHg 55%
    07:00 +15°C° 0 mm 1 mps 569 mmHg 51%
    08:00 +16°C° 0 mm 1 mps 570 mmHg 47%
    09:00 +19°C° 0 mm 1 mps 571 mmHg 41%
    10:00 +21°C° 0 mm 1 mps 572 mmHg 35%
    11:00 +23°C° 0 mm 1 mps 573 mmHg 29%
    12:00 +24°C° 0 mm 1 mps 572 mmHg 28%
    13:00 +24°C° 0 mm 1 mps 572 mmHg 26%
    14:00 +25°C° 0 mm 2 mps 571 mmHg 24%
    15:00 +23°C° 0.1 mm 2 mps 571 mmHg 30%
    16:00 +21°C° 0.1 mm 2 mps 571 mmHg 35%
    17:00 +20°C° 0.1 mm 2 mps 570 mmHg 40%
    18:00 +18°C° 0.1 mm 3 mps 570 mmHg 45%
    19:00 +17°C° 0.1 mm 3 mps 570 mmHg 50%
    20:00 +16°C° 0.1 mm 3 mps 571 mmHg 55%
    21:00 +14°C° 0 mm 3 mps 570 mmHg 59%
    22:00 +14°C° 0 mm 2 mps 570 mmHg 64%
    23:00 +13°C° 0 mm 2 mps 570 mmHg 68%

    Day after tomorrow, 24 February, Sunday

    Time Temperature Precipitation Wind Pressure Humidity
    00:00 +13°C° 0 mm 2 mps 569 mmHg 69%
    01:00 +13°C° 0 mm 1 mps 569 mmHg 70%
    02:00 +12°C° 0 mm 1 mps 568 mmHg 71%
    03:00 +12°C° 0 mm 1 mps 568 mmHg 71%
    04:00 +11°C° 0 mm 1 mps 568 mmHg 71%
    05:00 +11°C° 0 mm 1 mps 568 mmHg 72%
    06:00 +12°C° 0 mm 2 mps 569 mmHg 67%
    07:00 +14°C° 0 mm 2 mps 570 mmHg 63%
    08:00 +15°C° 0 mm 2 mps 571 mmHg 59%
    09:00 +16°C° 0 mm 2 mps 572 mmHg 53%
    10:00 +18°C° 0 mm 2 mps 573 mmHg 48%
    11:00 +20°C° 0 mm 2 mps 573 mmHg 42%
    12:00 +20°C° 0.1 mm 2 mps 573 mmHg 42%
    13:00 +20°C° 0.1 mm 2 mps 572 mmHg 43%
    14:00 +20°C° 0.1 mm 2 mps 572 mmHg 43%
    15:00 +19°C° 0.7 mm 2 mps 571 mmHg 48%
    16:00 +18°C° 0.7 mm 2 mps 571 mmHg 52%
    17:00 +17°C° 0.7 mm 2 mps 570 mmHg 57%
    18:00 +16°C° 0.3 mm 2 mps 570 mmHg 64%
    19:00 +15°C° 0.3 mm 2 mps 571 mmHg 70%
    20:00 +14°C° 0.3 mm 2 mps 571 mmHg 77%
    21:00 +14°C° 0.3 mm 2 mps 570 mmHg 79%
    22:00 +13°C° 0.3 mm 2 mps 570 mmHg 82%
    23:00 +13°C° 0.3 mm 2 mps 570 mmHg 85%

    25 February, Monday

    Time Temperature Precipitation Wind Pressure Humidity
    00:00 +12°C° 0 mm 2 mps 570 mmHg 86%
    01:00 +12°C° 0 mm 1 mps 569 mmHg 87%
    02:00 +12°C° 0 mm 1 mps 569 mmHg 89%
    03:00 +11°C° 0 mm 1 mps 569 mmHg 90%
    04:00 +11°C° 0 mm 1 mps 569 mmHg 91%
    05:00 +11°C° 0 mm 1 mps 569 mmHg 92%
    06:00 +12°C° 0 mm 1 mps 570 mmHg 85%
    07:00 +13°C° 0 mm 2 mps 571 mmHg 78%
    08:00 +15°C° 0 mm 2 mps 572 mmHg 71%
    09:00 +17°C° 0 mm 2 mps 572 mmHg 62%
    10:00 +18°C° 0 mm 2 mps 573 mmHg 52%
    11:00 +20°C° 0 mm 2 mps 573 mmHg 43%
    12:00 +21°C° 0.3 mm 2 mps 573 mmHg 42%
    13:00 +21°C° 0.3 mm 2 mps 572 mmHg 40%
    14:00 +21°C° 0.3 mm 2 mps 571 mmHg 39%
    15:00 +21°C° 0.9 mm 2 mps 571 mmHg 42%
    16:00 +20°C° 0.9 mm 2 mps 571 mmHg 46%
    17:00 +19°C° 0.9 mm 2 mps 570 mmHg 49%
    18:00 +18°C° 0.5 mm 2 mps 570 mmHg 52%
    19:00 +17°C° 0.5 mm 2 mps 571 mmHg 55%
    20:00 +16°C° 0.5 mm 1 mps 571 mmHg 59%
    21:00 +16°C° 0.3 mm 1 mps 571 mmHg 60%
    22:00 +16°C° 0.3 mm 2 mps 571 mmHg 62%
    23:00 +15°C° 0.3 mm 2 mps 571 mmHg 63%

    26 February, Tuesday

    Time Temperature Precipitation Wind Pressure Humidity
    00:00 +15°C° 0.1 mm 2 mps 570 mmHg 66%
    01:00 +15°C° 0.1 mm 2 mps 570 mmHg 68%
    02:00 +14°C° 0.1 mm 2 mps 569 mmHg 70%
    03:00 +14°C° 0 mm 1 mps 569 mmHg 70%
    04:00 +13°C° 0 mm 1 mps 569 mmHg 70%
    05:00 +12°C° 0 mm 0 mps 569 mmHg 70%
    06:00 +13°C° 0 mm 0 mps 570 mmHg 64%
    07:00 +14°C° 0 mm 0 mps 571 mmHg 58%
    08:00 +16°C° 0 mm 0 mps 572 mmHg 52%
    09:00 +17°C° 0 mm 0 mps 572 mmHg 46%
    10:00 +21°C° 0 mm 1 mps 573 mmHg 40%
    11:00 +23°C° 0 mm 1 mps 573 mmHg 34%
    12:00 +23°C° 0 mm 2 mps 573 mmHg 33%
    13:00 +24°C° 0 mm 2 mps 572 mmHg 31%
    14:00 +24°C° 0 mm 2 mps 572 mmHg 29%
    15:00 +23°C° 0.6 mm 2 mps 571 mmHg 35%
    16:00 +20°C° 0.6 mm 2 mps 571 mmHg 41%
    17:00 +19°C° 0.6 mm 2 mps 570 mmHg 47%
    18:00 +17°C° 3.2 mm 3 mps 570 mmHg 59%
    19:00 +14°C° 3.2 mm 4 mps 569 mmHg 71%
    20:00 +12°C° 3.2 mm 5 mps 569 mmHg 83%
    21:00 +12°C° 1.7 mm 4 mps 569 mmHg 79%
    22:00 +13°C° 1.7 mm 3 mps 569 mmHg 74%
    23:00 +14°C° 1.7 mm 2 mps 569 mmHg 70%

    27 February, Wednesday

    Time Temperature Precipitation Wind Pressure Humidity
    00:00 +14°C° 0 mm 2 mps 569 mmHg 70%
    01:00 +14°C° 0 mm 2 mps 568 mmHg 71%
    02:00 +13°C° 0 mm 2 mps 568 mmHg 71%
    03:00 +13°C° 0 mm 2 mps 568 mmHg 72%
    04:00 +13°C° 0 mm 2 mps 568 mmHg 72%
    05:00 +12°C° 0 mm 1 mps 568 mmHg 73%
    06:00 +13°C° 0 mm 1 mps 569 mmHg 65%
    07:00 +15°C° 0 mm 1 mps 570 mmHg 58%
    08:00 +16°C° 0 mm 1 mps 571 mmHg 51%
    09:00 +19°C° 0 mm 1 mps 571 mmHg 43%
    10:00 +21°C° 0 mm 1 mps 572 mmHg 36%
    11:00 +23°C° 0 mm 1 mps 572 mmHg 28%
    12:00 +23°C° 0 mm 2 mps 572 mmHg 28%
    13:00 +24°C° 0 mm 2 mps 571 mmHg 27%
    14:00 +24°C° 0 mm 2 mps 571 mmHg 26%
    15:00 +23°C° 0 mm 2 mps 571 mmHg 31%
    16:00 +21°C° 0 mm 2 mps 570 mmHg 36%
    17:00 +20°C° 0 mm 2 mps 570 mmHg 41%
    18:00 +19°C° 0 mm 2 mps 570 mmHg 46%
    19:00 +19°C° 0 mm 1 mps 570 mmHg 50%
    20:00 +18°C° 0 mm 1 mps 570 mmHg 55%
    21:00 +18°C° 0 mm 1 mps 569 mmHg 56%
    22:00 +16°C° 0 mm 1 mps 569 mmHg 58%
    23:00 +16°C° 0 mm 1 mps 569 mmHg 59%
    Show more